Location: Burkes Observatory
(44.7598°N, 69.4315°W)
Time: 19:46:57
(UTC-05:00)

Daily predictions for brighter satellites

Satellite Brightness Start Highest point End
(mag) Time Altitude Azimuth Time Altitude Azimuth Time Altitude Azimuth
COSMOS 2406 3.3 16:21:47 10° NNW 16:27:32 85° ENE 16:33:17 10° SSE
Cosmos 2251 Rocket 3.9 16:25:52 10° N 16:30:58 42° ENE 16:35:59 10° SE
CZ-2C R/B 2.8 16:27:27 10° SE 16:32:11 45° ENE 16:37:04 10° N
OTV 4 3.4 16:31:26 10° SW 16:33:03 14° SSW 16:34:39 10° SSE
SJ-12 4.3 16:29:17 10° SE 16:33:10 43° ENE 16:37:05 10° N
Cosmos 1975 4.2 16:30:54 10° NNE 16:33:50 19° ENE 16:36:43 10° ESE
Cosmos 2341 Rocket 4.0 16:28:21 10° N 16:34:36 87° E 16:40:50 10° S
MOS 1 4.4 16:30:14 10° SE 16:35:44 55° ENE 16:41:14 10° N
Cosmos 158 Rocket 4.1 16:30:56 10° NNW 16:36:21 88° ENE 16:41:37 10° SSE
Meteor 1-5 Rocket 4.1 16:32:36 10° N 16:38:01 70° ENE 16:43:33 10° SSE
Okean 3 3.7 16:38:16 10° SSW 16:42:33 75° W 16:46:50 10° N
Genesis I 4.4 16:41:02 10° NNW 16:44:16 23° NE 16:47:27 10° E
Cosmos 2082 Rocket 3.4 16:40:17 10° N 16:44:35 22° NE 16:48:53 10° E
SL-27 R/B 2.6 16:41:05 10° NNW 16:44:44 58° ENE 16:48:19 10° SSE
Cosmos 1833 Rocket 4.0 16:42:14 10° N 16:46:17 20° NE 16:50:18 10° E
Cosmos 1484 Rocket 3.7 16:52:02 10° SE 16:55:08 25° ENE 16:58:16 10° NNE
Cosmos 1544 Rocket 3.5 16:54:19 10° N 16:58:46 68° E 17:03:12 10° SSE
COSMO-SKYMED 1 3.7 16:56:51 10° NE 17:00:20 24° E 17:03:53 10° SSE
Cosmos 1975 Rocket 3.5 17:00:01 10° SSW 17:04:16 63° W 17:08:35 10° N
Cosmos 1500 4.0 17:01:37 10° NNE 17:05:01 29° ENE 17:08:24 10° SE
USA 116 4.5 17:01:20 10° NNE 17:06:46 84° ESE 17:12:01 10° SSW
Cosmos 2263 Rocket 4.1 17:03:00 10° WSW 17:07:30 24° NW 17:12:03 10° N
BREEZE-M DEB (TANK) 4.0 17:01:05 10° W 17:09:49 49° NNW 17:12:59 18° ENE
GEOS 3 Rocket 3.8 17:13:54 10° ESE 17:18:49 49° NE 17:23:45 10° NNW
Cosmos 1536 Rocket 3.6 17:16:26 10° S 17:20:49 62° E 17:25:16 10° NNE
USA 234 3.4 17:16:31 15° NE 17:22:08 73° NW 17:28:38 10° WSW
Cosmos 375 4.4 17:17:35 10° NW 17:22:14 67° NE 17:26:05 10° SE
Tiangong 1 3.2 17:23:20 10° S 17:25:00 14° SSE 17:25:29 13° SE
SPOT 3 Rocket 4.2 17:20:30 10° S 17:25:37 60° WSW 17:30:46 10° NNW
Okean 1 3.3 17:23:56 10° S 17:27:56 65° E 17:31:43 12° NNE
YAOGAN 1 3.3 17:24:24 10° S 17:28:39 56° W 17:32:56 10° NNW
Meteor 1-18 Rocket 4.2 17:23:27 10° S 17:29:05 86° E 17:34:53 10° NNE
NOSS 3-4 (A) 4.4 17:24:57 10° NNW 17:31:10 34° NE 17:34:29 24° E
NOSS 3-4 (C) 4.4 17:25:04 10° NNW 17:31:16 34° NE 17:34:32 24° E
Cosmos 1812 2.8 17:28:28 10° SSW 17:32:19 78° W 17:36:12 10° N
Cosmos 1844 Rocket 3.3 17:26:54 10° SW 17:32:24 56° WNW 17:37:58 10° NNE
BREEZE M DEB (TANK) 3.5 17:26:08 10° SW 17:34:06 38° SSE 17:35:34 27° ESE
COSMOS 2487 2.5 17:32:29 10° N 17:36:01 52° ENE 17:38:36 17° SE
CZ-3A R/B 4.3 17:21:23 10° WSW 17:38:03 51° NNW 17:41:45 21° NE
Cosmos 921 Rocket 4.0 17:34:40 10° SSE 17:37:42 27° ESE 17:37:42 27° ESE
EP 2 4.1 17:35:43 10° SW 17:38:18 90° E 17:38:30 74° NE
NOSS 3-3 (A) 4.0 17:33:35 10° SSW 17:39:44 70° ESE 17:44:01 23° NE
NOSS 3-3 (C) 4.0 17:33:41 10° SSW 17:39:50 70° ESE 17:44:05 23° NE
FALCON 9 R/B 4.3 17:15:25 10° WSW 17:40:39 47° S 17:46:24 18° ESE
ISS -2.5 17:38:24 10° W 17:41:33 41° NNW 17:42:12 36° N
Cosmos 1346 Rocket 2.6 17:40:06 10° S 17:43:58 63° E 17:45:20 36° NNE
IDEFIX/ARIANE 42P 3.9 17:41:22 10° SSW 17:46:17 42° W 17:51:12 10° NNW
ATLAS 2AS CENTAUR R/B 3.7 17:38:56 10° NW 17:46:48 56° WSW 17:54:07 10° SSE
Cosmos 1455 Rocket 4.2 17:43:56 10° NNW 17:48:09 46° W 17:52:22 10° SSW
SKYMED 2 3.4 17:45:30 19° NNE 17:48:38 78° E 17:52:59 10° S
Cosmos 1844 4.3 17:43:42 10° SW 17:49:09 55° WNW 17:54:03 13° NNE
Cosmos 2297 3.9 17:45:56 10° S 17:51:19 49° ESE 17:53:06 36° ENE
Okean 1-7 Rocket 3.7 17:49:49 10° S 17:54:12 51° E 17:54:42 48° ENE
CZ-3B DEB 2.6 17:52:27 10° WSW 17:56:40 76° NNW 18:02:20 26° NE
Cosmos 1535 Rocket 4.5 17:52:53 10° N 17:59:08 58° ENE 18:05:15 10° SSE
Cosmos 1934 Rocket 4.1 17:53:56 10° N 17:59:53 47° ENE 18:05:52 10° SSE
Abrixas 3.9 18:01:45 10° WNW 18:03:36 33° NW 18:03:36 33° NW
Cosmos 2278 Rocket 2.5 18:00:00 10° SW 18:05:36 66° WNW 18:09:21 22° NNE
Timation 2 Rocket 4.1 18:03:01 10° NNW 18:09:52 90° WSW 18:16:47 10° SSE
Cosmos 1975 4.4 18:06:44 10° NNW 18:10:29 36° W 18:14:13 10° SSW
BREEZE-M R/B 3.7 18:01:21 10° WSW 18:11:01 88° SSE 18:12:19 54° ENE
Meteor 1-19 Rocket 4.1 18:09:41 10° S 18:15:26 75° E 18:18:27 30° NNE
Cosmos 2239 Rocket 4.3 18:09:21 10° N 18:15:37 78° E 18:21:46 10° SSE
Genesis I 4.4 18:18:23 10° NW 18:22:07 42° WSW 18:23:19 32° SSW
Cosmos 1821 Rocket 3.8 18:19:02 10° N 18:25:11 87° E 18:31:17 10° S
NOAA 12 4.2 18:20:49 10° S 18:26:05 74° WSW 18:31:22 10° NNW
Cosmos 2082 Rocket 2.3 18:23:37 10° NNW 18:29:16 73° WSW 18:33:41 17° SSE
Cosmos 1833 Rocket 2.7 18:25:16 10° NNW 18:30:56 82° WSW 18:33:05 40° SSE
SL-8 R/B 3.8 18:26:26 10° WSW 18:30:50 73° WNW 18:30:50 73° WNW
METEOR-M 4.2 18:28:53 10° S 18:34:12 74° WSW 18:39:35 10° NNW
COSMO-SKYMED 1 4.1 18:34:04 19° NNW 18:36:33 33° WNW 18:40:27 10° SW
Timation 1 Rocket 4.4 18:49:25 10° SW 18:55:22 70° WNW 18:55:27 70° NW
Meteor 2-4 Rocket 4.3 18:54:23 10° SSW 18:58:30 50° SW 18:58:30 50° SW
USA 234 4.2 19:03:52 35° N 19:04:34 36° NNW 19:10:24 10° WNW
ATLAS 3B CENTAUR R/B 4.4 19:03:22 10° WSW 19:13:53 25° SSW 19:15:57 22° S
BREEZE M DEB (TANK) 4.1 19:17:22 10° WNW 19:21:54 73° SW 19:21:54 73° SW
NOSS 3-4 (A) 4.0 19:15:41 10° NW 19:21:59 67° W 19:21:59 67° W
NOSS 3-4 (C) 4.0 19:15:47 10° NW 19:22:03 67° W 19:22:03 67° W
CZ-3B DEB 4.4 20:26:26 10° WNW 20:30:57 41° NW 20:30:57 41° NW
